Regional Weather Roundup
Issued by NWS Charleston, SC

Current Version | Previous Version | Text Only | Print | Product List | Glossary Off
Versions: 1 2 3 4 5 6 7 8 9 10 11 12 13 14 15 16 17 18 19 20 21 22 23 24 25 26 27 28 29 30 31 32 33 34 35 36 37 38 39 40 41 42 43 44 45 46 47 48 49 50
000 ASUS42 KCHS 181325 RWRCHS REGIONAL WEATHER ROUNDUP NATIONAL WEATHER SERVICE CHARLESTON SC 800 AM EST THU DEC 18 2014 NOTE: "FAIR" INDICATES FEW OR NO CLOUDS BELOW 12,000 FEET WITH NO SIGNIFICANT WEATHER AND/OR OBSTRUCTIONS TO VISIBILITY. NOT ALL STATIONS ARE QUALITY CONTROLLED BY THE NATIONAL WEATHER SERVICE. USE DATA WITH CAUTION...ESPECIALLY DEWPOINT OBSERVATIONS. SCZ027-030-031-034>040-042>050-181400- ...SOUTHEAST SOUTH CAROLINA... CITY SKY/WX TMP DP RH WIND PRES REMARKS N CHARLESTON CLOUDY 42 40 92 CALM 30.15R WATERFRONT PRK N/A 48 N/A N/A CALM N/A MOUNT PLEASANT LGT RAIN 41 41 100 CALM 30.15R PINOPOLIS N/A 52 46 82 VRB2 30.07R MONCKS CORNER FAIR 37 36 93 CALM 30.15R SUMMERVILLE FAIR 36 36 100 CALM 30.17R BEAUFORT MCAS MOCLDY 42 39 89 CALM 30.15R BEAUFORT ARPT FAIR 43 41 93 CALM 30.15R HILTON HEAD IS MOCLDY 43 43 100 CALM 30.16R WALTERBORO CLOUDY 41 N/A N/A NW3 30.17R ALLENDALE FAIR 39 37 93 CALM 30.15R FOG ...SOUTHERN MIDLANDS AND PEE DEE... CITY SKY/WX TMP DP RH WIND PRES REMARKS GEORGETOWN NOT AVBL KINGSTREE NOT AVBL ORANGEBURG MOCLDY 36 34 92 CALM 30.14R BARNWELL N/A 36 34 93 CALM 30.17R AIKEN FAIR 36 36 100 CALM 30.18R MANNING NOT AVBL COLUMBIA CLOUDY 35 33 92 W5 30.15R WCI 31 SUMTER MOCLDY 37 34 90 NE5 30.14R WCI 33 FLORENCE MOCLDY 39 35 86 CALM 30.16R MYRTLE BEACH NOT AVBL N MYRTLE BEACH PTCLDY 42 39 89 NE6 30.15R $$ GAZ063-065-086>088-099>101-113>116-118-119-134>141-150-181400- ...SOUTHEAST GEORGIA... CITY SKY/WX TMP DP RH WIND PRES REMARKS SAVANNAH ARPT CLOUDY 42 37 82 W5 30.17R HUNTER AAF CLOUDY 41 39 92 W6 30.15R FORT STEWART CLOUDY 41 38 90 NW1 30.16R STATESBORO CLOUDY 38 38 100 CALM 30.16R SYLVANIA PTSUNNY 37 37 100 CALM 30.17R FOG CLAXTON FAIR 37 37 100 CALM 30.17S ...CSRA...CENTRAL AND FAR SOUTHEAST GEORGIA... CITY SKY/WX TMP DP RH WIND PRES REMARKS THOMSON MOCLDY 35 35 100 CALM 30.20S AUGUSTA-BUSH MOCLDY 33 32 96 CALM 30.16R AUGUSTA-DANIEL MOCLDY 39 36 89 W3 30.15R SWAINSBORO FAIR 37 37 100 NW3 30.17R HAZE VIDALIA CLOUDY 41 37 87 CALM 30.16S EASTMAN FAIR 36 36 100 CALM 30.20S FOG HAZLEHURST FAIR 41 41 100 CALM 30.17R ALMA CLOUDY 42 39 89 NW3 30.16R WAYCROSS CLOUDY 46 45 93 NW5 30.19R JESUP FAIR 45 41 87 CALM 30.16F BAXLEY FAIR 43 41 93 CALM 30.17R BRUNSWICK MOCLDY 45 41 87 NW3 30.18R SAINT SIMONS MOCLDY 43 40 89 CALM 30.16R $$ SCZ027-028-034-036>038-045-046-048>050-GAZ119-141-181400- ...LAKE AND SUPPLEMENTAL COASTAL OBSERVATIONS... STATION/POSITION TIME TEMP WIND PRES WAVE SWELL AIR SEA DIR/SP/G HT/PER HT/PER/DIR (UTC) (F) (DEG/KT/KT) (MB) (FT/S) (FT/S/D) UPR LAKE MARION NOT AVBL WINYAH BAY 1300 42 320/ 2 1020.0S LAKE MURRAY 1300 42 20/ 1/ 3 1020.3R ACE BASIN NERRS 1300 41 CALM 1020.0F FORT PULASKI 1300 43 56 300/ 7/ 8 1021.7R SAPELO ISLAND 1300 46 320/ 4 1021.0S $$ ANZ835-935-AMZ111-154-330-350-352-354-370-450-454-472-181400- ...C-MAN AND BUOY OBSERVATIONS... STATION/POSITION TIME TEMP WIND PRES WAVE SWELL AIR SEA DIR/SP/G HT/PER HT/PER/DIR (UTC) (F) (DEG/KT/KT) (MB) (FT/S) (FT/S/D) BUOY 41004 1300 60 73 340/ 6/ 8 1020.1R 1/10 2/10 BUOY 41008 1300 53 57 310/ 6/ 8 1021.1R 1/11 FOLLY BEACH CMAN 1300 47 320/ 2/ 2 1021.2R CAPERS NEARSHORE 1200 49 350/ 6/ 8 N/A FRIPP NEARSHORE NOT AVBL STATION/POSITION TIME TEMP WIND PRES WAVE SWELL AIR SEA DIR/SP/G HT/PER HT/PER/DIR (UTC) (F) (DEG/KT/KT) (MB) (FT/S) (FT/S/D) 5E ST. MARYS GA 1300 61 N/A 1/11 FRYING PAN BUOY 1300 55 65 10/ 14/ 16 1020.8R 2/10 2/100/10 BUOY 41025 1300 51 1019.9R 3/ 4 CAPE LOOKOUT NC 1300 45 360/ 12/ 14 1020.6R BUOY 41002 1242 70 72 280/ 12/ 16 1018.8R 4/ 6 3/310/ 6 BUOY 41010 1300 71 76 270/ 12/ 16 1020.0R 2/11 2/110/11 ST AUGUSTINE FL 1300 49 310/ 6/ 7 1021.8R $$

USA.gov is the U.S. government's official web portal to all federal, state and local government web resources and services.